This is the latest recevied weather packets stored in our database for station/object N2XP-3. If no packets are shown the sender has not sent any weather packets the latest 1 day(s).
| Time | Temp. | Humidity | Pressure | Rain* | Wind** | Luminosity | Snow |
|---|---|---|---|---|---|---|---|
| 1778024831 | 22.22° C | 46% | 1006.3 hPa | 0 mm | 1.79 m/s, 90° | - | - |
| 1778024229 | 22.78° C | 44% | 1006.3 hPa | 0 mm | 0.89 m/s, 229° | - | - |
| 1778023926 | 22.78° C | 43% | 1006.3 hPa | 0 mm | 2.68 m/s, 0° | - | - |
| 1778023627 | 23.33° C | 43% | 1006.1 hPa | 0 mm | 1.79 m/s, 236° | - | - |
| 1778023375 | 23.33° C | 42% | 1006.1 hPa | 0 mm | 1.79 m/s, 224° | - | - |
| 1778023324 | 23.33° C | 42% | 1006.1 hPa | 0 mm | 1.79 m/s, 224° | - | - |
| 1778023076 | 23.33° C | 42% | 1006.1 hPa | 0 mm | 1.34 m/s, 231° | - | - |
| 1778023073 | 23.33° C | 42% | 1006 hPa | 0 mm | 1.34 m/s, 291° | - | - |
| 1778023021 | 23.33° C | 42% | 1006.1 hPa | 0 mm | 1.34 m/s, 231° | - | - |
| 1778022721 | 23.33° C | 42% | 1006 hPa | 0 mm | 1.34 m/s, 291° | - | - |
| 1778022112 | 23.89° C | 40% | 1005.9 hPa | 0 mm | 3.58 m/s, 267° | - | - |
| 1778021813 | 23.89° C | 40% | 1005.9 hPa | 0 mm | 3.13 m/s, 158° | - | - |
| 1778021510 | 23.89° C | 40% | 1005.8 hPa | 0 mm | 2.24 m/s, 256° | - | - |
| 1778021207 | 23.89° C | 40% | 1005.8 hPa | 0 mm | 1.79 m/s, 114° | - | - |
| 1778019100 | 25.56° C | 37% | 1005.6 hPa | 0 mm | 3.13 m/s, 305° | - | - |
| 1778018800 | 25.56° C | 36% | 1005.7 hPa | 0 mm | 2.24 m/s, 259° | - | - |
| 1778018491 | 26.11° C | 35% | 1005.6 hPa | 0 mm | 2.24 m/s, 291° | - | - |
| 1778018186 | 26.11° C | 35% | 1005.5 hPa | 0 mm | 3.13 m/s, 186° | - | - |
| 1778017948 | 26.11° C | 35% | 1005.5 hPa | 0 mm | 3.13 m/s, 210° | - | - |
| 1778017888 | 26.11° C | 35% | 1005.5 hPa | 0 mm | 3.13 m/s, 210° | - | - |
| 1778017583 | 26.11° C | 35% | 1005.5 hPa | 0 mm | 4.02 m/s, 201° | - | - |
| 1778017282 | 26.11° C | 35% | 1005.4 hPa | 0 mm | 2.24 m/s, 283° | - | - |
| 1778016981 | 26.11° C | 36% | 1005.5 hPa | 0 mm | 2.24 m/s, 13° | - | - |
| 1778016676 | 26.11° C | 35% | 1005.5 hPa | 0 mm | 4.02 m/s, 231° | - | - |
| 1778016377 | 26.11° C | 35% | 1005.4 hPa | 0 mm | 3.58 m/s, 229° | - | - |
* Rain latest hour (hover to see other rain measurements)
** Current wind speed in m/s (hover to see current wind gust speed)